Date String (YYYY-MM-DD hh:mm:ss) UTC,Instrument flags,absolute air pressure of the measurement (hPa),sample flow rate (lpm),inlet stack bypass flow (lpm),air temperature of the measurement (°C),ambient temperature measured by the external sensor (°C),aerosol sample conditioner tube jacket temperature (°C),OPC LED temperature (°C),internal box temperature (°C),relative humidity of the measurement (%),span deviation,mass concentration of particles derived from Lorenz-Mie calculation of OPC scattering (μg/m³),mass concentration of particles derived from Lorenz-Mie calculation of OPC scattering (μg/m³),mass concentration of particles derived from Lorenz-Mie calculation of OPC scattering (μg/m³)
DateTimeUTC,F1_M11,P_M11,Q1_M11,Q2_M11,T1_M11,T2_M11,T3_M11,T4_M11,T5_M11,U1_M11,ZSPAN_M11,X0_M11,X2_M11,X1_M11
2024-04-10 03:00:00,SystemResetWarning,0827.7,5.00,000.00,026.3,025.5,000.0,034.8,028.2,007.2,0000.0,0009.83,0003.47,0001.56
2024-04-10 03:01:00,SystemResetWarning,0827.8,5.00,000.00,026.3,025.5,000.0,034.8,028.2,007.3,0000.0,0010.22,0003.46,0001.53
2024-04-10 03:02:00,SystemResetWarning,0827.8,5.00,000.00,026.3,025.5,000.0,034.8,028.1,007.4,0000.0,0010.38,0003.52,0001.53
2024-04-10 03:03:00,SystemResetWarning,0827.8,5.00,000.00,026.3,025.5,000.0,034.8,028.1,007.2,0000.0,0010.26,0003.50,0001.54
2024-04-10 03:04:00,SystemResetWarning,0827.8,5.00,000.00,026.3,025.5,000.0,034.8,028.1,007.2,0000.0,0010.19,0003.51,0001.54
2024-04-10 03:05:00,SystemResetWarning,0827.8,5.00,000.00,026.3,025.4,000.0,034.8,028.1,007.5,0000.0,0010.40,0003.58,0001.51
2024-04-10 03:06:00,SystemResetWarning,0827.8,5.00,000.00,026.3,025.4,000.0,034.8,028.1,007.6,0000.0,0010.46,0003.60,0001.50
2024-04-10 03:07:00,SystemResetWarning,0827.8,5.01,000.00,026.3,025.4,000.0,034.8,028.1,007.4,0000.0,0010.43,0003.57,0001.49
2024-04-10 03:08:00,SystemResetWarning,0827.9,5.00,000.00,026.3,025.4,000.0,034.8,028.1,007.4,0000.0,0010.33,0003.62,0001.49
2024-04-10 03:09:00,SystemResetWarning,0827.8,5.00,000.00,026.3,025.4,000.0,034.8,028.1,007.4,0000.0,0009.27,0003.65,0001.50
2024-04-10 03:10:00,SystemResetWarning,0827.9,5.00,000.00,026.3,025.4,000.0,034.8,028.1,007.4,0000.0,0009.08,0003.68,0001.50
2024-04-10 03:11:00,SystemResetWarning,0827.9,5.00,000.00,026.3,025.4,000.0,034.8,028.1,007.2,0000.0,0009.09,0003.68,0001.47
2024-04-10 03:12:00,SystemResetWarning,0828.0,5.00,000.00,026.3,025.4,000.0,034.8,028.1,007.4,0000.0,0008.67,0003.66,0001.47
2024-04-10 03:13:00,SystemResetWarning,0828.0,5.00,000.00,026.3,025.4,000.0,034.8,028.1,007.4,0000.0,0008.52,0003.65,0001.48
2024-04-10 03:14:00,SystemResetWarning,0828.0,5.00,000.00,026.3,025.4,000.0,034.8,028.1,007.3,0000.0,0008.66,0003.68,0001.48
2024-04-10 03:15:00,SystemResetWarning,0828.1,5.00,000.00,026.3,025.4,000.0,034.8,028.1,007.4,0000.0,0008.62,0003.66,0001.49
2024-04-10 03:16:00,SystemResetWarning,0828.1,4.99,000.00,026.3,025.4,000.0,034.8,028.1,007.4,0000.0,0008.52,0003.62,0001.52
2024-04-10 03:17:00,SystemResetWarning,0828.1,4.99,000.00,026.2,025.4,000.0,034.8,028.1,007.3,0000.0,0008.45,0003.60,0001.53
2024-04-10 03:18:00,SystemResetWarning,0828.1,5.00,000.00,026.2,025.4,000.0,034.7,028.1,007.4,0000.0,0008.39,0003.61,0001.52
2024-04-10 03:19:00,SystemResetWarning,0828.1,5.01,000.00,026.2,025.4,000.0,034.7,028.1,007.4,0000.0,0008.31,0003.59,0001.53
2024-04-10 03:20:00,SystemResetWarning,0828.1,5.00,000.00,026.2,025.4,000.0,034.7,028.0,007.5,0000.0,0008.35,0003.59,0001.53
2024-04-10 03:21:00,SystemResetWarning,0828.1,5.00,000.00,026.2,025.4,000.0,034.7,028.0,007.5,0000.0,0008.22,0003.52,0001.53
2024-04-10 03:22:00,SystemResetWarning,0828.0,5.01,000.00,026.2,025.4,000.0,034.7,028.1,007.5,0000.0,0008.13,0003.51,0001.55
2024-04-10 03:23:00,SystemResetWarning,0828.1,5.01,000.00,026.2,025.4,000.0,034.7,028.0,007.6,0000.0,0008.13,0003.50,0001.56
2024-04-10 03:24:00,SystemResetWarning,0828.1,4.99,000.00,026.2,025.4,000.0,034.7,028.0,007.6,0000.0,0008.16,0003.45,0001.56
2024-04-10 03:25:00,SystemResetWarning,0828.1,5.00,000.00,026.2,025.4,000.0,034.7,028.0,007.6,0000.0,0007.94,0003.41,0001.56
2024-04-10 03:26:00,SystemResetWarning,0828.1,4.99,000.00,026.2,025.4,000.0,034.7,028.1,007.5,0000.0,0007.95,0003.39,0001.54
2024-04-10 03:27:00,SystemResetWarning,0828.1,5.00,000.00,026.2,025.4,000.0,034.7,028.1,007.6,0000.0,0008.04,0003.38,0001.52
2024-04-10 03:28:00,SystemResetWarning,0828.1,5.00,000.00,026.2,025.4,000.0,034.7,028.1,007.7,0000.0,0008.03,0003.38,0001.53
2024-04-10 03:29:00,SystemResetWarning,0828.2,5.01,000.00,026.2,025.4,000.0,034.7,028.1,007.8,0000.0,0007.99,0003.37,0001.54
2024-04-10 03:30:00,SystemResetWarning,0828.1,5.00,000.00,026.2,025.4,000.0,034.7,028.1,007.6,0000.0,0008.19,0003.40,0001.56
2024-04-10 03:31:00,SystemResetWarning,0828.2,5.00,000.00,026.2,025.4,000.0,034.7,028.1,007.9,0000.0,0008.26,0003.43,0001.58
2024-04-10 03:32:00,SystemResetWarning,0828.1,5.00,000.00,026.2,025.4,000.0,034.7,028.1,008.0,0000.0,0008.48,0003.48,0001.60
2024-04-10 03:33:00,SystemResetWarning,0828.2,5.01,000.00,026.2,025.4,000.0,034.7,028.1,008.0,0000.0,0008.88,0003.51,0001.56
2024-04-10 03:34:00,SystemResetWarning,0828.1,5.00,000.00,026.2,025.4,000.0,034.7,028.1,008.1,0000.0,0008.85,0003.53,0001.59
2024-04-10 03:35:00,SystemResetWarning,0828.2,4.99,000.00,026.2,025.4,000.0,034.7,028.1,008.1,0000.0,0008.96,0003.62,0001.59
2024-04-10 03:36:00,SystemResetWarning,0828.1,4.99,000.00,026.2,025.4,000.0,034.7,028.1,008.1,0000.0,0009.21,0003.68,0001.60
2024-04-10 03:37:00,SystemResetWarning,0828.2,5.01,000.00,026.2,025.4,000.0,034.7,028.1,008.4,0000.0,0009.37,0003.74,0001.61
2024-04-10 03:38:00,SystemResetWarning,0828.2,5.00,000.00,026.2,025.4,000.0,034.7,028.1,008.4,0000.0,0009.19,0003.71,0001.62
2024-04-10 03:39:00,SystemResetWarning,0828.3,5.01,000.00,026.2,025.4,000.0,034.7,028.0,008.1,0000.0,0009.43,0003.72,0001.60
2024-04-10 03:40:00,SystemResetWarning,0828.2,5.00,000.00,026.2,025.4,000.0,034.7,028.1,007.8,0000.0,0010.04,0003.73,0001.60
2024-04-10 03:41:00,SystemResetWarning,0828.2,4.99,000.00,026.2,025.4,000.0,034.7,028.1,007.8,0000.0,0009.97,0003.74,0001.61
2024-04-10 03:42:00,SystemResetWarning,0828.3,4.99,000.00,026.2,025.4,000.0,034.7,028.1,007.9,0000.0,0009.73,0003.68,0001.59
2024-04-10 03:43:00,SystemResetWarning,0828.3,5.00,000.00,026.2,025.4,000.0,034.7,028.1,008.3,0000.0,0009.85,0003.64,0001.56
2024-04-10 03:44:00,SystemResetWarning,0828.3,5.00,000.00,026.2,025.4,000.0,034.7,028.0,008.3,0000.0,0009.41,0003.63,0001.57
2024-04-10 03:45:00,SystemResetWarning,0828.3,5.01,000.00,026.2,025.4,000.0,034.7,028.1,008.3,0000.0,0009.47,0003.60,0001.56
2024-04-10 03:46:00,SystemResetWarning,0828.3,5.00,000.00,026.2,025.4,000.0,034.7,028.1,008.4,0000.0,0009.41,0003.52,0001.54
2024-04-10 03:47:00,SystemResetWarning,0828.3,4.99,000.00,026.2,025.4,000.0,034.7,028.1,008.6,0000.0,0009.84,0003.46,0001.52
2024-04-10 03:48:00,SystemResetWarning,0828.3,4.99,000.00,026.2,025.4,000.0,034.7,028.0,008.5,0000.0,0009.84,0003.40,0001.52
2024-04-10 03:49:00,SystemResetWarning,0828.3,4.99,000.00,026.2,025.4,000.0,034.7,028.0,008.6,0000.0,0009.94,0003.38,0001.51
2024-04-10 03:50:00,SystemResetWarning,0828.3,5.00,000.00,026.2,025.4,000.0,034.7,028.0,008.6,0000.0,0009.89,0003.40,0001.53
2024-04-10 03:51:00,SystemResetWarning,0828.3,5.01,000.00,026.2,025.4,000.0,034.7,028.1,008.7,0000.0,0009.50,0003.42,0001.52
2024-04-10 03:52:00,SystemResetWarning,0828.3,5.01,000.00,026.2,025.5,000.0,034.7,028.1,008.6,0000.0,0009.56,0003.42,0001.50
2024-04-10 03:53:00,SystemResetWarning,0828.3,4.99,000.00,026.2,025.5,000.0,034.7,028.1,008.7,0000.0,0009.40,0003.41,0001.50
2024-04-10 03:54:00,SystemResetWarning,0828.3,4.99,000.00,026.2,025.5,000.0,034.7,028.1,008.7,0000.0,0009.02,0003.38,0001.51
2024-04-10 03:55:00,SystemResetWarning,0828.3,5.00,000.00,026.2,025.5,000.0,034.7,028.1,008.7,0000.0,0009.06,0003.38,0001.51
2024-04-10 03:56:00,SystemResetWarning,0828.3,5.00,000.00,026.2,025.5,000.0,034.7,028.1,008.6,0000.0,0009.12,0003.37,0001.51
2024-04-10 03:57:00,SystemResetWarning,0828.3,5.00,000.00,026.2,025.5,000.0,034.7,028.1,008.6,0000.0,0009.13,0003.40,0001.53
2024-04-10 03:58:00,SystemResetWarning,0828.3,4.99,000.00,026.2,025.5,000.0,034.7,028.1,008.6,0000.0,0008.60,0003.43,0001.55
2024-04-10 03:59:00,SystemResetWarning,0828.4,5.00,000.00,026.2,025.5,000.0,034.7,028.1,008.7,0000.0,0008.63,0003.43,0001.56
